,,PressureMeas_1m,,PRMeasQMR101_1,,RHStat155_1m_1,,SRMeasQMS101R_1m,,TAStat155_1m_1,,GenWind_1,,GenWind_1,
2019-02-25, 07:00:06,VALID,917.414,VALID,0.0,VALID,94.411,VALID,37.174,VALID,20.054,INVALID,360.0,VALID,0.0,
2019-02-25, 07:01:06,VALID,917.413,VALID,0.0,VALID,94.402,VALID,36.931,VALID,20.087,INVALID,360.0,VALID,0.0,
2019-02-25, 07:02:06,VALID,917.421,VALID,0.0,VALID,94.249,VALID,36.465,VALID,20.096,INVALID,360.0,VALID,0.0,
2019-02-25, 07:03:06,VALID,917.421,VALID,0.0,VALID,94.245,VALID,34.727,VALID,20.072,INVALID,360.0,VALID,0.0,
2019-02-25, 07:04:06,VALID,917.411,VALID,0.0,VALID,94.329,VALID,33.477,VALID,20.063,INVALID,360.0,VALID,0.0,
2019-02-25, 07:05:06,VALID,917.41,VALID,0.0,VALID,94.237,VALID,32.812,VALID,20.081,INVALID,360.0,VALID,0.0,
2019-02-25, 07:06:06,VALID,917.432,VALID,0.0,VALID,94.118,VALID,33.007,VALID,20.103,VALID,92.0,VALID,1.648,
2019-02-25, 07:07:06,VALID,917.433,VALID,0.0,VALID,93.976,VALID,35.218,VALID,20.097,VALID,76.0,VALID,2.303,
2019-02-25, 07:08:06,VALID,917.429,VALID,0.0,VALID,94.286,VALID,59.257,VALID,20.085,VALID,89.0,VALID,2.421,
2019-02-25, 07:09:06,VALID,917.465,VALID,0.0,VALID,94.448,VALID,61.334,VALID,20.091,VALID,91.0,VALID,1.591,
2019-02-25, 07:10:06,VALID,917.457,VALID,0.0,VALID,94.497,VALID,58.823,VALID,20.092,VALID,89.0,VALID,1.438,
2019-02-25, 07:11:06,VALID,917.457,VALID,0.0,VALID,94.53,VALID,61.587,VALID,20.079,VALID,85.0,VALID,1.736,
2019-02-25, 07:12:06,VALID,917.429,VALID,0.0,VALID,94.546,VALID,68.313,VALID,20.077,VALID,88.0,VALID,1.746,
2019-02-25, 07:13:06,VALID,917.424,VALID,0.0,VALID,94.546,VALID,76.142,VALID,20.097,VALID,90.0,VALID,1.493,
2019-02-25, 07:14:06,VALID,917.429,VALID,0.0,VALID,94.672,VALID,85.747,VALID,20.141,INVALID,360.0,VALID,0.327,
2019-02-25, 07:15:06,VALID,917.443,VALID,0.0,VALID,94.413,VALID,94.9,VALID,20.22,INVALID,360.0,VALID,0.0,
2019-02-25, 07:16:06,VALID,917.453,VALID,0.0,VALID,94.025,VALID,98.165,VALID,20.313,INVALID,360.0,VALID,0.0,
2019-02-25, 07:17:06,VALID,917.486,VALID,0.0,VALID,93.722,VALID,99.703,VALID,20.414,INVALID,360.0,VALID,0.0,
2019-02-25, 07:18:06,VALID,917.487,VALID,0.0,VALID,93.352,VALID,102.143,VALID,20.486,INVALID,360.0,VALID,0.0,
2019-02-25, 07:19:06,VALID,917.509,VALID,0.0,VALID,93.004,VALID,105.039,VALID,20.563,INVALID,360.0,VALID,0.0,
2019-02-25, 07:20:06,VALID,917.519,VALID,0.0,VALID,92.528,VALID,111.298,VALID,20.638,INVALID,360.0,VALID,0.0,
2019-02-25, 07:21:06,VALID,917.548,VALID,0.0,VALID,92.395,VALID,115.497,VALID,20.704,INVALID,360.0,VALID,0.0,
2019-02-25, 07:22:06,VALID,917.56,VALID,0.0,VALID,91.805,VALID,118.634,VALID,20.739,INVALID,360.0,VALID,0.0,
2019-02-25, 07:23:06,VALID,917.562,VALID,0.0,VALID,91.262,VALID,118.72,VALID,20.844,INVALID,360.0,VALID,0.0,
2019-02-25, 07:24:06,VALID,917.576,VALID,0.0,VALID,90.993,VALID,125.056,VALID,20.935,INVALID,360.0,VALID,0.0,
2019-02-25, 07:25:06,VALID,917.599,VALID,0.0,VALID,90.397,VALID,131.351,VALID,21.024,INVALID,360.0,VALID,0.0,
2019-02-25, 07:26:06,VALID,917.636,VALID,0.0,VALID,89.835,VALID,133.795,VALID,21.135,INVALID,360.0,VALID,0.0,
2019-02-25, 07:27:06,VALID,917.663,VALID,0.0,VALID,89.292,VALID,138.062,VALID,21.23,INVALID,360.0,VALID,0.0,
2019-02-25, 07:28:06,VALID,917.681,VALID,0.0,VALID,88.547,VALID,133.244,VALID,21.264,INVALID,360.0,VALID,0.0,
2019-02-25, 07:29:06,VALID,917.704,VALID,0.0,VALID,88.217,VALID,133.921,VALID,21.322,INVALID,360.0,VALID,0.0,
2019-02-25, 07:30:06,VALID,917.727,VALID,0.0,VALID,87.837,VALID,139.346,VALID,21.42,INVALID,360.0,VALID,0.0,
2019-02-25, 07:31:06,VALID,917.739,VALID,0.0,VALID,88.024,VALID,139.967,VALID,21.488,INVALID,360.0,VALID,0.0,
2019-02-25, 07:32:06,VALID,917.75,VALID,0.0,VALID,88.031,VALID,145.319,VALID,21.531,INVALID,360.0,VALID,0.0,
2019-02-25, 07:33:06,VALID,917.79,VALID,0.0,VALID,87.536,VALID,154.086,VALID,21.581,INVALID,360.0,VALID,0.0,
2019-02-25, 07:34:06,VALID,917.829,VALID,0.0,VALID,87.328,VALID,159.191,VALID,21.617,INVALID,360.0,VALID,0.0,
2019-02-25, 07:35:06,VALID,917.84,VALID,0.0,VALID,88.076,VALID,164.279,VALID,21.598,INVALID,360.0,VALID,0.0,
2019-02-25, 07:36:06,VALID,917.848,VALID,0.0,VALID,88.459,VALID,168.607,VALID,21.696,INVALID,360.0,VALID,0.0,
2019-02-25, 07:37:06,VALID,917.877,VALID,0.0,VALID,87.965,VALID,169.189,VALID,21.766,INVALID,360.0,VALID,0.0,
2019-02-25, 07:38:06,VALID,917.887,VALID,0.0,VALID,88.471,VALID,168.054,VALID,21.718,INVALID,360.0,VALID,0.0,
2019-02-25, 07:39:06,VALID,917.919,VALID,0.0,VALID,87.986,VALID,171.173,VALID,21.656,INVALID,360.0,VALID,0.0,
2019-02-25, 07:40:06,VALID,917.921,VALID,0.0,VALID,87.814,VALID,176.637,VALID,21.574,INVALID,360.0,VALID,0.0,
2019-02-25, 07:41:06,VALID,917.958,VALID,0.0,VALID,88.086,VALID,180.494,VALID,21.566,INVALID,360.0,VALID,0.0,
2019-02-25, 07:42:06,VALID,917.959,VALID,0.0,VALID,88.514,VALID,182.895,VALID,21.595,INVALID,360.0,VALID,0.0,
2019-02-25, 07:43:06,VALID,917.984,VALID,0.0,VALID,87.4,VALID,193.247,VALID,21.712,INVALID,360.0,VALID,0.0,
2019-02-25, 07:44:06,VALID,917.997,VALID,0.0,VALID,87.457,VALID,201.593,VALID,21.868,INVALID,360.0,VALID,0.0,
2019-02-25, 07:45:06,VALID,918.036,VALID,0.0,VALID,87.479,VALID,202.052,VALID,21.975,INVALID,360.0,VALID,0.0,
2019-02-25, 07:46:06,VALID,918.02,VALID,0.0,VALID,87.95,VALID,199.122,VALID,22.024,INVALID,360.0,VALID,0.0,
2019-02-25, 07:47:06,VALID,918.016,VALID,0.0,VALID,87.009,VALID,200.861,VALID,22.073,INVALID,360.0,VALID,0.0,
2019-02-25, 07:48:06,VALID,918.03,VALID,0.0,VALID,86.844,VALID,208.362,VALID,22.076,INVALID,360.0,VALID,0.0,
2019-02-25, 07:49:06,VALID,918.01,VALID,0.0,VALID,87.391,VALID,216.676,VALID,22.021,INVALID,360.0,VALID,0.0,
2019-02-25, 07:50:06,VALID,918.018,VALID,0.0,VALID,87.777,VALID,214.153,VALID,22.035,INVALID,360.0,VALID,0.0,
2019-02-25, 07:51:06,VALID,918.022,VALID,0.0,VALID,87.417,VALID,217.486,VALID,22.111,INVALID,360.0,VALID,0.0,
2019-02-25, 07:52:06,VALID,918.019,VALID,0.0,VALID,87.726,VALID,221.261,VALID,22.114,INVALID,360.0,VALID,0.0,
2019-02-25, 07:53:06,VALID,918.026,VALID,0.0,VALID,88.206,VALID,229.634,VALID,22.018,INVALID,360.0,VALID,0.0,
2019-02-25, 07:54:06,VALID,918.028,VALID,0.0,VALID,88.48,VALID,228.423,VALID,22.039,INVALID,360.0,VALID,0.0,
2019-02-25, 07:55:06,VALID,918.038,VALID,0.0,VALID,87.804,VALID,226.709,VALID,22.207,INVALID,360.0,VALID,0.429,
2019-02-25, 07:56:06,VALID,918.042,VALID,0.0,VALID,87.022,VALID,230.223,VALID,22.402,VALID,70.0,VALID,1.565,
2019-02-25, 07:57:06,VALID,918.039,VALID,0.0,VALID,85.742,VALID,245.029,VALID,22.332,VALID,82.0,VALID,2.268,
2019-02-25, 07:58:06,VALID,918.021,VALID,0.0,VALID,85.704,VALID,252.24,VALID,22.28,VALID,99.0,VALID,2.006,
2019-02-25, 07:59:06,VALID,918.023,VALID,0.0,VALID,83.798,VALID,253.606,VALID,22.392,VALID,93.0,VALID,1.513,
2019-02-25, 08:00:06,VALID,918.033,VALID,0.0,VALID,83.142,VALID,252.714,VALID,22.568,VALID,99.0,VALID,2.3,
2019-02-25, 08:01:06,VALID,918.003,VALID,0.0,VALID,82.485,VALID,261.057,VALID,22.633,VALID,88.0,VALID,2.265,
2019-02-25, 08:02:06,VALID,918.042,VALID,0.0,VALID,82.742,VALID,261.543,VALID,22.662,VALID,90.0,VALID,2.648,
2019-02-25, 08:03:06,VALID,918.037,VALID,0.0,VALID,82.466,VALID,266.046,VALID,22.618,VALID,84.0,VALID,2.426,
2019-02-25, 08:04:06,VALID,918.01,VALID,0.0,VALID,83.315,VALID,266.149,VALID,22.558,VALID,46.0,VALID,2.375,
2019-02-25, 08:05:06,VALID,918.03,VALID,0.0,VALID,83.643,VALID,269.672,VALID,22.48,VALID,71.0,VALID,1.53,
2019-02-25, 08:06:06,VALID,918.029,VALID,0.0,VALID,84.557,VALID,273.939,VALID,22.563,VALID,114.0,VALID,2.013,
2019-02-25, 08:07:06,VALID,918.023,VALID,0.0,VALID,84.134,VALID,285.524,VALID,22.586,VALID,118.0,VALID,2.334,
2019-02-25, 08:08:06,VALID,918.019,VALID,0.0,VALID,83.089,VALID,289.21,VALID,22.66,VALID,126.0,VALID,1.893,
2019-02-25, 08:09:06,VALID,918.035,VALID,0.0,VALID,81.412,VALID,283.486,VALID,22.668,VALID,97.0,VALID,1.579,
2019-02-25, 08:10:06,VALID,918.065,VALID,0.0,VALID,81.88,VALID,300.229,VALID,22.706,VALID,88.0,VALID,1.54,
2019-02-25, 08:11:06,VALID,918.1,VALID,0.0,VALID,83.006,VALID,177.423,VALID,22.771,VALID,112.0,VALID,1.452,
2019-02-25, 08:12:06,VALID,918.108,VALID,0.0,VALID,82.627,VALID,310.836,VALID,22.707,VALID,116.0,VALID,1.567,
2019-02-25, 08:13:06,VALID,918.124,VALID,0.0,VALID,82.782,VALID,312.879,VALID,22.719,VALID,81.0,VALID,1.913,
2019-02-25, 08:14:06,VALID,918.15,VALID,0.0,VALID,82.829,VALID,308.705,VALID,22.792,VALID,94.0,VALID,1.321,
2019-02-25, 08:15:06,VALID,918.176,VALID,0.0,VALID,81.973,VALID,303.551,VALID,22.968,VALID,118.0,VALID,2.153,
2019-02-25, 08:16:06,VALID,918.194,VALID,0.0,VALID,80.868,VALID,299.129,VALID,22.975,VALID,114.0,VALID,2.083,
2019-02-25, 08:17:06,VALID,918.222,VALID,0.0,VALID,80.789,VALID,291.335,VALID,22.903,VALID,127.0,VALID,1.447,
2019-02-25, 08:18:06,VALID,918.227,VALID,0.0,VALID,80.043,VALID,342.562,VALID,22.901,VALID,147.0,VALID,0.848,
2019-02-25, 08:19:06,VALID,918.247,VALID,0.0,VALID,80.943,VALID,348.691,VALID,22.972,VALID,130.0,VALID,0.928,
2019-02-25, 08:20:06,VALID,918.25,VALID,0.0,VALID,80.935,VALID,344.214,VALID,23.087,VALID,93.0,VALID,1.133,
2019-02-25, 08:21:06,VALID,918.298,VALID,0.0,VALID,81.722,VALID,347.835,VALID,23.308,VALID,98.0,VALID,1.162,
2019-02-25, 08:22:06,VALID,918.317,VALID,0.0,VALID,80.84,VALID,348.967,VALID,23.455,VALID,92.0,VALID,1.772,
2019-02-25, 08:23:06,VALID,918.348,VALID,0.0,VALID,79.901,VALID,351.833,VALID,23.433,VALID,106.0,VALID,1.225,
2019-02-25, 08:24:06,VALID,918.362,VALID,0.0,VALID,80.732,VALID,303.576,VALID,23.502,VALID,92.0,VALID,1.467,
2019-02-25, 08:25:06,VALID,918.362,VALID,0.0,VALID,79.36,VALID,354.483,VALID,23.5,VALID,112.0,VALID,1.862,
2019-02-25, 08:26:06,VALID,918.378,VALID,0.0,VALID,78.611,VALID,364.87,VALID,23.417,VALID,104.0,VALID,2.093,
2019-02-25, 08:27:06,VALID,918.388,VALID,0.0,VALID,78.79,VALID,324.281,VALID,23.469,VALID,151.0,VALID,0.928,
2019-02-25, 08:28:06,VALID,918.393,VALID,0.0,VALID,80.138,VALID,353.891,VALID,23.593,VALID,115.0,VALID,1.673,
2019-02-25, 08:29:06,VALID,918.392,VALID,0.0,VALID,78.893,VALID,376.373,VALID,23.516,VALID,115.0,VALID,1.855,
2019-02-25, 08:30:06,VALID,918.407,VALID,0.0,VALID,79.342,VALID,371.042,VALID,23.413,VALID,111.0,VALID,2.433,
2019-02-25, 08:31:06,VALID,918.392,VALID,0.0,VALID,79.654,VALID,349.658,VALID,23.418,VALID,121.0,VALID,1.544,
2019-02-25, 08:32:06,VALID,918.409,VALID,0.0,VALID,79.029,VALID,341.871,VALID,23.551,VALID,95.0,VALID,2.508,
2019-02-25, 08:33:06,VALID,918.404,VALID,0.0,VALID,78.455,VALID,371.618,VALID,23.527,VALID,97.0,VALID,3.021,
2019-02-25, 08:34:06,VALID,918.416,VALID,0.0,VALID,77.046,VALID,388.288,VALID,23.464,VALID,86.0,VALID,2.507,
2019-02-25, 08:35:06,VALID,918.405,VALID,0.0,VALID,78.753,VALID,303.385,VALID,23.297,VALID,70.0,VALID,3.0,
2019-02-25, 08:36:06,VALID,918.402,VALID,0.0,VALID,79.744,VALID,369.284,VALID,23.167,VALID,50.0,VALID,2.38,
2019-02-25, 08:37:06,VALID,918.396,VALID,0.0,VALID,79.999,VALID,401.244,VALID,23.156,VALID,63.0,VALID,2.124,
2019-02-25, 08:38:06,VALID,918.421,VALID,0.0,VALID,80.469,VALID,265.242,VALID,23.188,VALID,75.0,VALID,2.228,
2019-02-25, 08:39:06,VALID,918.444,VALID,0.0,VALID,81.668,VALID,197.616,VALID,23.243,VALID,101.0,VALID,2.425,
2019-02-25, 08:40:06,VALID,918.429,VALID,0.0,VALID,79.716,VALID,417.123,VALID,23.258,VALID,115.0,VALID,2.694,
2019-02-25, 08:41:06,VALID,918.424,VALID,0.0,VALID,80.231,VALID,401.042,VALID,23.286,VALID,102.0,VALID,2.019,
2019-02-25, 08:42:06,VALID,918.425,VALID,0.0,VALID,80.939,VALID,408.175,VALID,23.424,VALID,95.0,VALID,1.495,
2019-02-25, 08:43:06,VALID,918.445,VALID,0.0,VALID,79.895,VALID,400.663,VALID,23.547,VALID,105.0,VALID,2.451,
2019-02-25, 08:44:06,VALID,918.452,VALID,0.0,VALID,78.911,VALID,442.112,VALID,23.596,VALID,95.0,VALID,1.973,
2019-02-25, 08:45:06,VALID,918.465,VALID,0.0,VALID,78.791,VALID,444.596,VALID,23.721,VALID,95.0,VALID,2.05,
2019-02-25, 08:46:06,VALID,918.478,VALID,0.0,VALID,79.03,VALID,443.809,VALID,23.895,VALID,87.0,VALID,1.945,
2019-02-25, 08:47:06,VALID,918.492,VALID,0.0,VALID,78.195,VALID,381.531,VALID,23.89,VALID,74.0,VALID,2.218,
2019-02-25, 08:48:06,VALID,918.511,VALID,0.0,VALID,77.496,VALID,309.386,VALID,23.818,VALID,108.0,VALID,3.071,
2019-02-25, 08:49:06,VALID,918.537,VALID,0.0,VALID,77.611,VALID,465.604,VALID,23.623,VALID,92.0,VALID,2.386,
2019-02-25, 08:50:06,VALID,918.543,VALID,0.0,VALID,78.325,VALID,366.853,VALID,23.611,VALID,85.0,VALID,1.913,
2019-02-25, 08:51:06,VALID,918.557,VALID,0.0,VALID,80.101,VALID,293.828,VALID,23.74,VALID,85.0,VALID,1.28,
2019-02-25, 08:52:06,VALID,918.559,VALID,0.0,VALID,79.524,VALID,455.616,VALID,23.91,VALID,119.0,VALID,1.516,
2019-02-25, 08:53:06,VALID,918.567,VALID,0.0,VALID,77.758,VALID,476.178,VALID,24.037,VALID,109.0,VALID,1.752,
2019-02-25, 08:54:06,VALID,918.561,VALID,0.0,VALID,76.999,VALID,473.35,VALID,24.068,VALID,118.0,VALID,1.58,
2019-02-25, 08:55:06,VALID,918.548,VALID,0.0,VALID,76.054,VALID,405.685,VALID,24.129,VALID,97.0,VALID,1.86,
2019-02-25, 08:56:06,VALID,918.579,VALID,0.0,VALID,76.659,VALID,481.968,VALID,24.092,VALID,103.0,VALID,2.232,
2019-02-25, 08:57:06,VALID,918.565,VALID,0.0,VALID,75.943,VALID,354.436,VALID,24.034,VALID,84.0,VALID,2.073,
2019-02-25, 08:58:06,VALID,918.598,VALID,0.0,VALID,75.165,VALID,196.338,VALID,23.991,VALID,74.0,VALID,2.772,
2019-02-25, 08:59:06,VALID,918.591,VALID,0.0,VALID,77.564,VALID,222.041,VALID,23.737,VALID,52.0,VALID,2.725,
2019-02-25, 09:00:06,VALID,918.594,VALID,0.0,VALID,78.923,VALID,295.886,VALID,23.605,INVALID,360.0,VALID,0.839,
2019-02-25, 09:01:06,VALID,918.601,VALID,0.0,VALID,79.608,VALID,367.445,VALID,23.689,INVALID,360.0,VALID,0.642,
2019-02-25, 09:02:06,VALID,918.586,VALID,0.0,VALID,78.278,VALID,158.646,VALID,23.812,VALID,112.0,VALID,2.438,
2019-02-25, 09:03:06,VALID,918.583,VALID,0.0,VALID,78.296,VALID,176.769,VALID,23.751,VALID,47.0,VALID,3.145,
2019-02-25, 09:04:06,VALID,918.589,VALID,0.0,VALID,78.695,VALID,286.666,VALID,23.59,VALID,70.0,VALID,1.93,
2019-02-25, 09:05:06,VALID,918.582,VALID,0.0,VALID,79.312,VALID,307.411,VALID,23.613,VALID,96.0,VALID,1.967,
2019-02-25, 09:06:06,VALID,918.613,VALID,0.0,VALID,78.142,VALID,227.312,VALID,23.724,VALID,113.0,VALID,2.578,
2019-02-25, 09:07:06,VALID,918.622,VALID,0.0,VALID,77.051,VALID,275.421,VALID,23.611,VALID,70.0,VALID,2.924,
2019-02-25, 09:08:06,VALID,918.621,VALID,0.0,VALID,77.646,VALID,564.986,VALID,23.479,VALID,104.0,VALID,2.786,
2019-02-25, 09:09:06,VALID,918.635,VALID,0.0,VALID,76.748,VALID,562.076,VALID,23.542,VALID,97.0,VALID,1.498,
2019-02-25, 09:10:06,VALID,918.621,VALID,0.0,VALID,77.499,VALID,545.665,VALID,23.765,VALID,94.0,VALID,2.095,
2019-02-25, 09:11:06,VALID,918.62,VALID,0.0,VALID,77.373,VALID,517.992,VALID,23.999,VALID,106.0,VALID,2.033,
2019-02-25, 09:12:06,VALID,918.626,VALID,0.0,VALID,76.387,VALID,567.118,VALID,24.149,VALID,116.0,VALID,2.857,
2019-02-25, 09:13:06,VALID,918.633,VALID,0.0,VALID,74.227,VALID,592.046,VALID,24.199,VALID,115.0,VALID,2.395,
2019-02-25, 09:14:06,VALID,918.64,VALID,0.0,VALID,75.715,VALID,598.898,VALID,24.169,VALID,95.0,VALID,2.327,
2019-02-25, 09:15:06,VALID,918.651,VALID,0.0,VALID,74.124,VALID,475.146,VALID,24.218,VALID,96.0,VALID,2.557,
2019-02-25, 09:16:06,VALID,918.634,VALID,0.0,VALID,74.817,VALID,329.54,VALID,24.132,VALID,96.0,VALID,2.442,
2019-02-25, 09:17:06,VALID,918.645,VALID,0.0,VALID,75.508,VALID,544.66,VALID,24.093,VALID,101.0,VALID,2.982,
2019-02-25, 09:18:06,VALID,918.65,VALID,0.0,VALID,76.548,VALID,587.021,VALID,24.073,VALID,84.0,VALID,2.0,
2019-02-25, 09:19:06,VALID,918.632,VALID,0.0,VALID,77.247,VALID,553.73,VALID,24.374,VALID,37.0,VALID,1.344,
2019-02-25, 09:20:06,VALID,918.617,VALID,0.0,VALID,72.622,VALID,594.176,VALID,24.474,VALID,38.0,VALID,1.493,
2019-02-25, 09:21:06,VALID,918.594,VALID,0.0,VALID,73.228,VALID,589.217,VALID,24.447,VALID,45.0,VALID,1.118,
2019-02-25, 09:22:06,VALID,918.593,VALID,0.0,VALID,73.917,VALID,591.059,VALID,24.621,VALID,133.0,VALID,1.002,
2019-02-25, 09:23:06,VALID,918.584,VALID,0.0,VALID,74.565,VALID,586.445,VALID,24.89,VALID,84.0,VALID,2.12,
2019-02-25, 09:24:06,VALID,918.584,VALID,0.0,VALID,72.649,VALID,548.026,VALID,24.873,VALID,69.0,VALID,2.546,
2019-02-25, 09:25:06,VALID,918.586,VALID,0.0,VALID,68.751,VALID,609.803,VALID,24.465,VALID,75.0,VALID,1.369,
2019-02-25, 09:26:06,VALID,918.605,VALID,0.0,VALID,72.309,VALID,612.231,VALID,24.411,VALID,69.0,VALID,1.976,
2019-02-25, 09:27:06,VALID,918.596,VALID,0.0,VALID,73.748,VALID,613.741,VALID,24.439,VALID,86.0,VALID,2.168,
2019-02-25, 09:28:06,VALID,918.585,VALID,0.0,VALID,74.708,VALID,625.348,VALID,24.574,VALID,87.0,VALID,1.848,
2019-02-25, 09:29:06,VALID,918.592,VALID,0.0,VALID,76.444,VALID,619.682,VALID,24.947,VALID,99.0,VALID,1.903,
2019-02-25, 09:30:06,VALID,918.605,VALID,0.0,VALID,73.699,VALID,616.859,VALID,25.229,VALID,89.0,VALID,2.189,
2019-02-25, 09:31:06,VALID,918.601,VALID,0.0,VALID,72.382,VALID,657.148,VALID,25.17,VALID,49.0,VALID,2.457,
2019-02-25, 09:32:06,VALID,918.602,VALID,0.0,VALID,70.247,VALID,595.841,VALID,24.963,VALID,78.0,VALID,1.513,
2019-02-25, 09:33:06,VALID,918.583,VALID,0.0,VALID,69.511,VALID,653.49,VALID,24.96,VALID,129.0,VALID,1.261,
2019-02-25, 09:34:06,VALID,918.619,VALID,0.0,VALID,71.137,VALID,656.592,VALID,25.2,VALID,124.0,VALID,2.382,
2019-02-25, 09:35:06,VALID,918.617,VALID,0.0,VALID,72.312,VALID,666.072,VALID,25.266,VALID,113.0,VALID,3.099,
2019-02-25, 09:36:06,VALID,918.603,VALID,0.0,VALID,71.396,VALID,663.788,VALID,25.301,VALID,94.0,VALID,2.005,
2019-02-25, 09:37:06,VALID,918.586,VALID,0.0,VALID,74.156,VALID,653.365,VALID,25.4,VALID,54.0,VALID,2.404,
2019-02-25, 09:38:06,VALID,918.573,VALID,0.0,VALID,70.432,VALID,656.649,VALID,25.259,VALID,83.0,VALID,2.751,
2019-02-25, 09:39:06,VALID,918.548,VALID,0.0,VALID,69.959,VALID,672.098,VALID,25.205,VALID,80.0,VALID,2.411,
2019-02-25, 09:40:06,VALID,918.525,VALID,0.0,VALID,70.322,VALID,667.538,VALID,25.161,VALID,109.0,VALID,2.262,
2019-02-25, 09:41:06,VALID,918.509,VALID,0.0,VALID,71.629,VALID,655.726,VALID,25.163,VALID,91.0,VALID,2.582,
2019-02-25, 09:42:06,VALID,918.517,VALID,0.0,VALID,71.265,VALID,678.78,VALID,25.214,VALID,120.0,VALID,2.58,
2019-02-25, 09:43:06,VALID,918.508,VALID,0.0,VALID,70.64,VALID,689.42,VALID,25.257,VALID,133.0,VALID,2.3,
2019-02-25, 09:44:06,VALID,918.484,VALID,0.0,VALID,69.984,VALID,704.75,VALID,25.403,VALID,110.0,VALID,2.893,
2019-02-25, 09:45:06,VALID,918.44,VALID,0.0,VALID,69.404,VALID,720.537,VALID,25.303,VALID,112.0,VALID,2.327,
2019-02-25, 09:46:06,VALID,918.49,VALID,0.0,VALID,71.068,VALID,710.557,VALID,25.364,VALID,98.0,VALID,2.814,
2019-02-25, 09:47:06,VALID,918.453,VALID,0.0,VALID,69.873,VALID,713.619,VALID,25.297,VALID,118.0,VALID,3.007,
2019-02-25, 09:48:06,VALID,918.433,VALID,0.0,VALID,70.529,VALID,700.792,VALID,25.263,VALID,98.0,VALID,2.325,
2019-02-25, 09:49:06,VALID,918.421,VALID,0.0,VALID,71.048,VALID,693.685,VALID,25.32,VALID,95.0,VALID,3.075,
2019-02-25, 09:50:06,VALID,918.406,VALID,0.0,VALID,69.227,VALID,702.571,VALID,25.25,VALID,85.0,VALID,2.333,
2019-02-25, 09:51:06,VALID,918.368,VALID,0.0,VALID,71.742,VALID,715.009,VALID,25.253,VALID,65.0,VALID,1.679,
2019-02-25, 09:52:06,VALID,918.369,VALID,0.0,VALID,71.264,VALID,721.327,VALID,25.447,VALID,76.0,VALID,1.422,
2019-02-25, 09:53:06,VALID,918.376,VALID,0.0,VALID,69.985,VALID,725.885,VALID,25.649,VALID,102.0,VALID,2.024,
2019-02-25, 09:54:06,VALID,918.359,VALID,0.0,VALID,70.583,VALID,728.723,VALID,25.67,VALID,89.0,VALID,1.762,
2019-02-25, 09:55:06,VALID,918.351,VALID,0.0,VALID,70.922,VALID,728.695,VALID,25.731,VALID,102.0,VALID,2.721,
2019-02-25, 09:56:06,VALID,918.33,VALID,0.0,VALID,69.274,VALID,730.433,VALID,25.592,VALID,105.0,VALID,1.9,
2019-02-25, 09:57:06,VALID,918.335,VALID,0.0,VALID,70.608,VALID,740.355,VALID,25.539,VALID,98.0,VALID,2.297,
2019-02-25, 09:58:06,VALID,918.326,VALID,0.0,VALID,69.104,VALID,738.079,VALID,25.484,VALID,108.0,VALID,2.791,
2019-02-25, 09:59:06,VALID,918.333,VALID,0.0,VALID,68.449,VALID,746.52,VALID,25.398,VALID,102.0,VALID,2.327,
2019-02-25, 10:00:06,VALID,918.324,VALID,0.0,VALID,71.312,VALID,739.008,VALID,25.417,VALID,95.0,VALID,1.754,
2019-02-25, 10:01:06,VALID,918.339,VALID,0.0,VALID,70.343,VALID,725.343,VALID,25.647,VALID,68.0,VALID,2.165,
2019-02-25, 10:02:06,VALID,918.332,VALID,0.0,VALID,67.729,VALID,638.756,VALID,25.354,VALID,68.0,VALID,2.588,
2019-02-25, 10:03:06,VALID,918.341,VALID,0.0,VALID,69.715,VALID,729.349,VALID,25.182,VALID,68.0,VALID,1.891,
2019-02-25, 10:04:06,VALID,918.348,VALID,0.0,VALID,70.126,VALID,671.345,VALID,25.238,VALID,71.0,VALID,2.661,
2019-02-25, 10:05:06,VALID,918.333,VALID,0.0,VALID,71.865,VALID,271.093,VALID,25.281,VALID,76.0,VALID,1.652,
2019-02-25, 10:06:06,VALID,918.357,VALID,0.0,VALID,71.446,VALID,656.441,VALID,25.352,VALID,72.0,VALID,2.506,
2019-02-25, 10:07:06,VALID,918.349,VALID,0.0,VALID,70.454,VALID,692.359,VALID,25.232,VALID,69.0,VALID,3.041,
2019-02-25, 10:08:06,VALID,918.326,VALID,0.0,VALID,70.159,VALID,492.198,VALID,25.117,VALID,63.0,VALID,1.417,
2019-02-25, 10:09:06,VALID,918.343,VALID,0.0,VALID,71.578,VALID,776.377,VALID,25.311,VALID,67.0,VALID,3.184,
2019-02-25, 10:10:06,VALID,918.32,VALID,0.0,VALID,67.374,VALID,789.686,VALID,25.12,VALID,77.0,VALID,4.012,
2019-02-25, 10:11:06,VALID,918.291,VALID,0.0,VALID,69.204,VALID,569.409,VALID,25.058,VALID,75.0,VALID,2.453,
2019-02-25, 10:12:06,VALID,918.289,VALID,0.0,VALID,69.786,VALID,782.123,VALID,25.227,VALID,90.0,VALID,3.353,
2019-02-25, 10:13:06,VALID,918.304,VALID,0.0,VALID,70.116,VALID,771.767,VALID,25.312,VALID,78.0,VALID,2.823,
2019-02-25, 10:14:06,VALID,918.276,VALID,0.0,VALID,69.962,VALID,617.409,VALID,25.434,VALID,66.0,VALID,1.621,
2019-02-25, 10:15:06,VALID,918.263,VALID,0.0,VALID,69.726,VALID,757.77,VALID,25.623,VALID,35.0,VALID,1.165,
2019-02-25, 10:16:06,VALID,918.257,VALID,0.0,VALID,70.215,VALID,775.936,VALID,25.786,VALID,55.0,VALID,3.407,
2019-02-25, 10:17:06,VALID,918.253,VALID,0.0,VALID,69.618,VALID,797.228,VALID,25.629,VALID,50.0,VALID,3.248,
2019-02-25, 10:18:06,VALID,918.214,VALID,0.0,VALID,71.964,VALID,804.297,VALID,25.637,VALID,53.0,VALID,2.447,
2019-02-25, 10:19:06,VALID,918.226,VALID,0.0,VALID,67.848,VALID,786.002,VALID,25.62,VALID,69.0,VALID,2.831,
2019-02-25, 10:20:06,VALID,918.2,VALID,0.0,VALID,67.865,VALID,779.316,VALID,25.403,VALID,68.0,VALID,1.791,
2019-02-25, 10:21:06,VALID,918.198,VALID,0.0,VALID,69.591,VALID,785.838,VALID,25.525,VALID,52.0,VALID,2.228,
2019-02-25, 10:22:06,VALID,918.182,VALID,0.0,VALID,70.197,VALID,802.432,VALID,25.551,VALID,33.0,VALID,2.758,
2019-02-25, 10:23:06,VALID,918.215,VALID,0.0,VALID,70.319,VALID,786.975,VALID,25.761,VALID,79.0,VALID,2.492,
2019-02-25, 10:24:06,VALID,918.243,VALID,0.0,VALID,68.605,VALID,773.498,VALID,25.879,VALID,87.0,VALID,2.854,
2019-02-25, 10:25:06,VALID,918.224,VALID,0.0,VALID,71.021,VALID,813.258,VALID,25.972,VALID,81.0,VALID,1.939,
2019-02-25, 10:26:06,VALID,918.21,VALID,0.0,VALID,67.846,VALID,829.361,VALID,26.071,VALID,84.0,VALID,2.328,
2019-02-25, 10:27:06,VALID,918.204,VALID,0.0,VALID,66.773,VALID,835.374,VALID,25.984,VALID,68.0,VALID,2.71,
2019-02-25, 10:28:06,VALID,918.187,VALID,0.0,VALID,67.459,VALID,783.219,VALID,25.878,VALID,73.0,VALID,2.593,
2019-02-25, 10:29:06,VALID,918.172,VALID,0.0,VALID,67.651,VALID,875.512,VALID,25.944,VALID,46.0,VALID,2.282,
2019-02-25, 10:30:06,VALID,918.187,VALID,0.0,VALID,69.05,VALID,800.216,VALID,25.94,VALID,51.0,VALID,2.026,
2019-02-25, 10:31:06,VALID,918.193,VALID,0.0,VALID,70.091,VALID,864.728,VALID,26.233,VALID,40.0,VALID,2.558,
2019-02-25, 10:32:06,VALID,918.143,VALID,0.0,VALID,67.284,VALID,841.368,VALID,26.187,VALID,43.0,VALID,3.366,
2019-02-25, 10:33:06,VALID,918.157,VALID,0.0,VALID,66.86,VALID,828.995,VALID,26.006,VALID,47.0,VALID,1.79,
2019-02-25, 10:34:06,VALID,918.164,VALID,0.0,VALID,66.481,VALID,827.443,VALID,25.971,VALID,61.0,VALID,2.022,
2019-02-25, 10:35:06,VALID,918.18,VALID,0.0,VALID,67.722,VALID,835.221,VALID,25.996,VALID,66.0,VALID,2.712,
2019-02-25, 10:36:06,VALID,918.173,VALID,0.0,VALID,66.636,VALID,853.98,VALID,25.918,VALID,52.0,VALID,3.393,